Regional Weather Roundup
Issued by NWS Goodland, KS

Home | Current Version | Previous Version | Text Only | Print | Product List | Glossary On
Versions: 1 2 3 4 5 6 7 8 9 10 11 12 13 14 15 16 17 18 19 20 21 22 23 24 25 26 27 28 29 30 31 32 33 34 35 36 37 38 39 40 41 42 43 44 45 46 47 48 49 50
000
ASUS43 KGLD 201308
RWRGLD

GOODLAND FORECAST AREA HOURLY WEATHER ROUNDUP
NATIONAL WEATHER SERVICE GOODLAND KS
600 AM MST SAT JAN 20 2018

...OFFICIAL OBSERVATIONS...

CITY           SKY/WX    TMP DP  RH WIND       PRES   REMARKS
GOODLAND KS    CLEAR     22  20  92 W9        29.73R
HILL CITY KS   CLOUDY    22  19  89 SW3       29.73S
IMPERIAL NEB   CLOUDY    28  27  96 N9        29.78R
MCCOOK NEB     PTCLDY    25  23  92 N9        29.77R
AKRON CO       MOCLDY    33  19  56 S8        29.72S
BURLINGTON CO  PTCLDY    23  17  78 W6        29.74R
LIMON CO       MOCLDY    28  16  60 N6        29.75R
$$

...UNOFFICIAL OBSERVATIONS...

CITY           SKY/WX    TMP DP  RH WIND       PRES   REMARKS
COLBY KS       CLEAR     28  28 100 N5        29.74S
NORTON KS      CLEAR     28  25  86 N6        29.75
SHARON SPRINGS   N/A     23  15  70 CALM        N/A
KIT CARSON CO    N/A     24  11  58 MISG        N/A
YUMA CO        FAIR      23  18  80 SW3       29.74R
$$



USA.gov is the U.S. government's official web portal to all federal, state and local government web resources and services.